Terminal Aerodrome Forecast
Issued by NWS

Home | Current Version | Previous Version | Text Only | Print | Product List | Glossary On
Versions: 1 2 3 4 5 6 7 8 9 10 11 12 13
000
FTUS45 KRIW 201128
TAFCPR
TAF
KCPR 201128Z 2012/2112 23012KT P6SM SCT100
     FM201600 22022G32KT P6SM FEW100
     FM210800 22028G42KT P6SM SCT100 BKN200=

USA.gov is the U.S. government's official web portal to all federal, state and local government web resources and services.